{"data":{"norad_id":63713,"epoch":"2026-05-25T05:17:52.918368Z","epoch_age_seconds":58998,"freshness":"FRESH","line1":"1 63713U 25087S   26145.22075137  .00023885  00000+0  77850-3 0  9992","line2":"2 63713  53.1593 223.5932 0001386 103.6578 256.4578 15.31720479 60925","mean_motion":15.31720479,"eccentricity":0.0001386,"inclination_deg":53.1593,"raan_deg":223.5932,"arg_perigee_deg":103.6578,"mean_anomaly_deg":256.4578,"bstar":0.0007785,"rev_number":6092,"period_min":94.011931011076,"perigee_km":469.72970318191,"apogee_km":471.62819496299,"semimajor_km":6848.8159490724,"source":"CELESTRAK","updated_at":"2026-05-25T13:38:20.099854Z"}}